HULIANWAN GAOGUI-01 (H*)

Last updated on Thu Jul 03 2025 00:02:49 GMT+0000 (Coordinated Universal Time)

1 59069U 24040A 25182.93080722 .00000161 00000+0 00000+0 0 9994 2 59069 0.0252 332.7646 0001651 53.7269 262.4380 1.00270416 3814
UTC large
Height (km)
Speed (km/s)
/
Latitude / Longitude
Inclination (degrees)
Orbital Period (minutes)
Azimuth
Elevation
Range (km)
Doppler Factor

Next 0 passes for location: London (51.5072 / 0.1276)

Sorry there are no passes over London.